Back to catalog

STARLINK-32841

AliveCommunicationsVLEO
NORAD 62865·PAYLOAD·🇺🇸 United States

Launched Feb 1, 2025 from Vandenberg Space Force Base

Loading…

Next Passes (next 24 hours)

TLE

FreshSource: CelesTrak SupGP

Epoch: Sep 14, 2026, 22:39 UTC

1 62865C 25022M   26257.94423611  .00012807  00000+0  37853-3 0  2573
2 62865  53.1596 327.5586 0001210  85.8792  72.6454 15.34371518    14

Track STARLINK-32841 in real time with AllMySat

Download on the App Store